Retour au catalogue

FALCON 9 R/B

ActifGTO
NORAD 41381·ROCKET BODY·🇺🇸 United States

Lancé Mar 4, 2016 depuis Cape Canaveral Space Force Station

Loading…

TLE

VieillissantSource: Space-Track

Époque: Sep 14, 2026, 08:18 UTC

1 41381U 16013B   26257.34611555  .00000368  00000-0  91311-3 0  9995
2 41381  27.2903 222.4049 7414803 359.0758 359.8837  2.05378074 77147

Suivez FALCON 9 R/B en temps réel avec AllMySat

Download on the App Store